Preview of NWS' New Version of Forecast
This preview is not operational and should not be used for support decisions.

Regional Weather Roundup (RWR)

Issued by National Weather Service (NWS)

                            
000
ASUS43 KDTX 162001
RWRMI 
MICHIGAN HOURLY REGIONAL WEATHER ROUNDUP
NATIONAL WEATHER SERVICE DETROIT/PONTIAC MI
300 PM EST SAT FEB 16 2019

NOTE: "FAIR" INDICATES FEW OR NO CLOUDS BELOW 12,000 FEET WITH NO
SIGNIFICANT WEATHER AND/OR OBSTRUCTION TO VISIBILITY.

MIZ047>049-052>055-059>063-066>070-074>076-081>083-162100-
SOUTHEAST LOWER MICHIGAN
  
CITY           SKY/WX    TMP DP  RH WIND       PRES   REMARKS
ADRIAN         CLOUDY    25  16  68 E6        30.08F WCI  18          
ALMA           CLOUDY    26  13  59 W5        30.12S WCI  20          
ANN ARBOR      CLOUDY    26  17  68 N7        30.07F WCI  18          
BAD AXE        CLOUDY    24  17  74 NW8       30.10S WCI  15          
CARO           CLOUDY    24  16  70 N3        30.12R                  
DETROIT CITY   CLOUDY    26  15  63 N7        30.10F WCI  18          
DETROIT        CLOUDY    27  14  58 N6        30.09F WCI  20          
FLINT          CLOUDY    25  15  66 N6        30.10F WCI  18          
GROSSE ILE     CLOUDY    26  20  77 E5        30.09F WCI  20          
HILLSDALE      CLOUDY    25  16  68 E3        30.05S                  
HOWELL         CLOUDY    26  16  67 NE3       30.08S                  

CITY           SKY/WX    TMP DP  RH WIND       PRES   REMARKS
JACKSON        CLOUDY    25  17  72 NW6       30.07S WCI  18          
LAMBERTVILLE   CLOUDY    26  18  72 N3        30.09F                  
LANSING        CLOUDY    26  16  65 N6        30.10S WCI  19          
LAPEER         CLOUDY    26  16  65 N5        30.10R WCI  20          
MASON          CLOUDY    26  17  69 NE7       30.08F WCI  18          
MONROE         CLOUDY    26  18  72 E3        30.08F                  
PONTIAC        CLOUDY    25  16  68 N5        30.06F WCI  19          
PORT HOPE        N/A     24  15  68 NW9       30.11R WCI  14          
PORT HURON     CLOUDY    27  16  63 CALM      30.11R                  
TRI CITIES     CLOUDY    25  15  66 CALM      30.13R                  
MIDLAND        CLOUDY    28  15  58 CALM      30.12S                  
TROY           CLOUDY    27  15  60 CALM      30.10F                  
SAGINAW HB     CLOUDY    25  16  68 CALM      30.12S                  
$$
MIZ043>046-050>051-056>058-064>065-071>073-077>080-162100-
SOUTHWEST LOWER MICHIGAN
  
CITY           SKY/WX    TMP DP  RH WIND       PRES   REMARKS
BATTLE CREEK   CLOUDY    25  16  68 CALM      30.08F                  
BENTON HARBOR  CLOUDY    28  16  60 E6        30.09F WCI  22          
BIG RAPIDS     FAIR      27  15  60 N5        30.08F WCI  21          
COLDWATER      CLOUDY    25  18  73 N5        30.07F WCI  19          
FREMONT        FAIR      28  14  57 N5        30.10F WCI  22          
HOLLAND        CLOUDY    27  16  63 NE7       30.10F WCI  19          
GRAND RAPIDS   PTSUNNY   28  15  58 N6        30.08F WCI  22          
IONIA          CLOUDY    26  14  60 N3        30.09F                  
KALAMAZOO      CLOUDY    25  15  66 E5        30.08F WCI  19          
LUDINGTON      PTSUNNY   27  15  61 N6        30.10F WCI  20          
MARSHALL       CLOUDY    25  18  74 CALM      30.07F                  
MOUNT PLEASANT PTSUNNY   26  13  57 CALM      30.10F                  
MUSKEGON       PTSUNNY   31  14  49 NE6       30.10F WCI  25          
SOUTH HAVEN    CLOUDY    27  16  63 E6        30.10S WCI  21          
$$
MIZ016>042-162100-
NORTHERN LOWER MICHIGAN
  
CITY           SKY/WX    TMP DP  RH WIND       PRES   REMARKS
ALPENA         PTSUNNY   24  13  62 NW12      30.12R WCI  13          
BEAVER ISLAND  CLOUDY    24  13  64 NW5       30.15S WCI  18          
CADILLAC       CLOUDY    24  10  54 NW7       30.06F WCI  16          
CHARLEVOIX     LGT SNOW  22  17  78 N6        30.18R WCI  15          
FRANKFORT      FLURRIES  25  16  68 N3        30.13F                  
GAYLORD        PTSUNNY   21   9  59 VRB6      30.08R WCI  13          
HARBOR SPRINGS CLOUDY    24  12  62 W10       30.14R WCI  13          
HOUGHTON LAKE  CLOUDY    24  13  62 W7        30.09S WCI  16          
MANISTEE       CLOUDY    29  17  61 N8        30.12F WCI  21          
OSCODA         CLOUDY    24  13  62 CALM      30.12R                  
PELLSTON       FAIR      22  11  62 NW10      30.14R WCI  11          
ROGERS CITY    PTSUNNY   21  13  73 N8        30.13S WCI  11          
TRAVERSE CITY  CLOUDY    26  17  68 NE9       30.12F WCI  17          
$$
MIZ007>008-015-162100-
EASTERN UPPER MICHIGAN
  
CITY           SKY/WX    TMP DP  RH WIND       PRES   REMARKS
KINROSS        PTSUNNY   19  11  70 NW12      30.12S WCI   7          
MACKINAC ISLAN PTSUNNY   21  14  75 W7        30.12S WCI  12          
NEWBERRY       LGT SNOW  21  14  74 N6        30.12R WCI  13          
S. S. MARIE    FAIR      20  11  68 NW10      30.12S WCI   9          
MUNISING         N/A     20  12  71 N13       30.16S WCI   7          
$$
MIZ004>006-011>014-085-162100-
CENTRAL UPPER MICHIGAN
  
CITY           SKY/WX    TMP DP  RH WIND       PRES   REMARKS
MANISTIQUE     CLOUDY    23   8  51 NW8       30.14S WCI  14          
ESCANABA       FAIR      26  11  52 CALM      30.15F                  
MENOMINEE      FAIR      24  13  62 SE9       30.16F WCI  14          
SAWYER-GWINN   MOSUNNY   16  10  79 NE5       30.11F WCI   9          
$$
MIZ001>003-009>011-084-162100-
WESTERN UPPER MICHIGAN
  
CITY           SKY/WX    TMP DP  RH WIND       PRES   REMARKS
IRON MOUNTAIN  FAIR      22   7  52 CALM      30.10F                  
HOUGHTON       FAIR      17   6  62 NW8       30.12F WCI   7          
COPPER HARBOR    N/A     17  10  74 N9        30.17F WCI   6          
IRONWOOD       FAIR      27  10  49 S3        30.11F                  
$$

ABBREVIATIONS USED IN REMARKS
   TC - TEMPERATURE IN CELSIUS
  WCI - WIND CHILL INDEX
   HX - HEAT INDEX
  VSB - VISIBILITY